www.pogodaiklimat.ru

Погода и климат >> Архив погоды >> Россия >> Якутия >> Усть-Миль


ПОГОДА в Усть-Миле

  • Прогноз погоды в Усть-Миле
  • Монитор погоды в Усть-Миле

АРХИВ ПОГОДЫ в Усть-Миле

Время (UTC), дата Ветер
(напр.,м/с)
 
Видим.   Явления Облачность Т
(С)
Тd
(С)
f
(%)
Тe
(С)
Тes
(С)
Комфортность P
(гПа)
Po
(гПа)
Тmin
(С)
Tmax
(С)
R
(мм)
R24
(мм)
S
(см)
12 13.08 СВ 1 50 км 3/0
[Ac trans]
+14.6 +11.4 81 +15 +15 1009.2 988.1
15 13.08 штиль 0 50 км ясно +9.3 +8.9 97 +8 +8 1009.7 988.1
18 13.08 штиль 0 50 км ясно +8.4 +7.7 95 +7 +7 1010.0 988.3
21 13.08 СВ 1 50 км 10/0
[Ac trans Ci fib]
+9.2 +8.2 93 +8 +9 1009.7 988.1 +8.3
00 14.08 СВ 1 50 км 10/0
[Ac trans Ci fib]
+17.4 +12.9 75 +18 +24 1008.8 987.8
03 14.08 В 2 50 км 10/3 600 м
[Cu hum Ci fib]
+23.2 +11.9 49 +26 +32 жарко 1006.5 986.0
06 14.08 В 2 50 км 10/4 600 м
[Cu med, cong Cs]
+24.7 +11.9 45 +26 +30 жарко 1005.2 984.9
09 14.08 В 1 50 км 10/6 600 м
[Cb cap Ac trans Cs]
+22.6 +11.6 50 +25 +25 комфорт 1005.3 984.8 +25.1
12 14.08 В 1 50 км 10/4 600 м
[Cb cap Ac trans Cs]
+20.5 +9.5 49 +23 +23 комфорт 1005.5 984.8
15 14.08 СВ 2 50 км 10/8 600 м
[Cb cap Ac trans Cs]
+19.8 +9.3 51 +22 +22 комфорт 1006.3 985.6
18 14.08 В 1 50 км 10/4 600 м
[Cb cap Cs]
+18.7 +9.0 53 +20 +20 1006.6 985.7
21 14.08 В 2 50 км 10/8 600 м
[Cb cap Cs]
+18.6 +11.5 63 +20 +20 1005.7 985.0 +18.5
00 15.08 В 2 50 км {ливн. осадки} 10/6 600 м
[Cb cap Cs]
+17.0 +12.5 75 +17 +19 1006.9 986.0
03 15.08 ЮВ 2 50 км 10/8 600 м
[Cb cap Cs]
+20.5 +11.9 58 +23 +25 комфорт 1007.1 986.5
06 15.08 В 2 20 км слаб. ливневой дождь 10/8 600 м
[Cb cap Cs]
+18.3 +13.8 75 +19 +20 1007.9 987.2
09 15.08 В 2 50 км {ливн. осадки} 10/3 600 м
[Cb cap Ac trans Cs]
+21.0 +14.0 64 +25 +25 комфорт 1007.9 987.3 +21.0 0.8
12 15.08 В 1 50 км {ливн. осадки} 10/3 600 м
[Cb cap Cs]
+18.7 +12.2 66 +21 +21 комфорт 1009.4 988.6
15 15.08 В 1 50 км 10/8 600 м
[Cb cap Cs]
+16.2 +12.8 80 +17 +17 1009.7 988.6
18 15.08 ЮВ 2 10 км слаб. ливневой дождь 10/8 600 м
[Cb cap Cs]
+14.6 +14.6 100 +14 +14 1010.8 989.7
21 15.08 ЮВ 1 50 км в посл. час ливневой дождь 10/8 600 м
[Cb cap Cs]
+14.4 +14.4 100 +15 +15 1011.3 990.2 +14.3 6
00 16.08 ЮВ 1 50 км {ливн. осадки} 10/3 600 м
[Cb cap Ac trans Cs]
+16.7 +12.8 78 +18 +20 1012.2 991.2
03 16.08 Ю 1 50 км 10/6 600 м
[Cb cap Cs]
+19.8 +12.3 62 +22 +26 комфорт 1012.2 991.4
06 16.08 Ю 2 50 км 10/8 600 м
[Cb cap Cs]
+22.7 +13.4 56 +26 +27 жарко 1012.5 991.9
09 16.08 Ю 1 50 км 10/6 600 м
[Cb cap Ac trans Cs]
+22.4 +14.2 60 +26 +26 жарко 1012.1 991.5 +23.5
12 16.08 штиль 0 50 км 10/0
[Cs]
+19.7 +12.8 64 +21 +21 комфорт 1013.9 993.0
15 16.08 штиль 0 50 км 10/0
[Cs]
+16.4 +6.2 51 +16 +16 1014.9 993.4
18 16.08 В 1 50 км 10/0
[Cs]
+14.2 +7.3 63 +15 +15 1015.5 994.1
21 16.08 В 1 50 км 4/0
[Ac trans]
+13.8 +10.6 81 +14 +15 1016.0 994.6 +13.7
00 17.08 ЮВ 2 50 км 10/0
[Ci fib]
+18.6 +11.5 63 +20 +25 1014.2 993.3
03 17.08 Ю 2 50 км 10/0
[Cs]
+20.2 +8.4 47 +22 +30 комфорт 1014.2 993.3
06 17.08 ЮВ 2 50 км 10/0
[As op]
+19.7 +8.9 50 +21 +23 комфорт 1014.4 993.5
09 17.08 Ю 1 50 км 10/4 600 м
[Frnb As op]
+18.6 +8.1 50 +20 +20 1015.2 994.1 +20.7
12 17.08 В 1 50 км 10/6 600 м
[Cb cap As op]
+14.7 +7.4 62 +15 +15 1015.6 994.2
15 17.08 штиль 0 50 км 10/4 600 м
[Cb cap As op]
+12.9 +7.4 69 +13 +13 1015.8 994.3
18 17.08 штиль 0 50 км 10/3 600 м
[Cb cap As op]
+12.2 +7.5 73 +12 +12 1016.0 994.5
21 17.08 СВ 1 50 км 10/6 600 м
[Cb cap As op]
+13.2 +9.7 79 +13 +13 1014.5 993.1 +12.1
00 18.08 ЮВ 2 50 км 10/8 600 м
[Cb cap As op]
+15.2 +8.3 63 +15 +15 1014.6 993.4
03 18.08 В 1 20 км слаб. ливневой дождь 10/6 600 м
[Cb cap As op]
+15.4 +9.4 67 +16 +17 1014.6 993.4
06 18.08 ЮВ 2 20 км слаб. ливневой дождь 10/8 600 м
[Cb cap As op]
+14.0 +9.1 72 +14 +14 1015.0 993.6
09 18.08 В 1 50 км {ливн. осадки} 10/8 600 м
[Cb cap As op]
+14.7 +9.3 70 +15 +15 1014.5 993.1 +15.4 0.3
12 18.08 ЮВ 1 50 км {ливн. осадки} 10/6 600 м
[Cb cap As op]
+14.0 +10.0 77 +14 +14 1015.0 993.6
15 18.08 В 1 10 км слаб. ливневой дождь 10/8 600 м
[Cb cap As op]
+13.5 +11.2 86 +14 +14 1015.0 993.6
18 18.08 ЮВ 2 50 км {ливн. осадки} 10/8 600 м
[Cb cap As op]
+13.0 +12.1 94 +12 +12 1015.1 993.7
21 18.08 В 2 50 км 9/9 600 м
[Cb cap]
+13.0 +8.4 74 +12 +12 1015.7 994.3 +12.8 0.3
00 19.08 В 2 50 км 10/8 600 м
[Cb cap As op]
+14.8 +8.0 64 +15 +15 1016.1 994.7
03 19.08 ЮВ 2 50 км {ливн. осадки} 9/6 600 м
[Cb cap Ac trans]
+16.6 +8.4 58 +17 +19 1016.1 994.9
06 19.08 В 2 50 км {ливн. осадки} 10/6 600 м
[Cb cap As op]
+17.2 +8.7 57 +18 +18 1016.9 995.2
09 19.08 СВ 1 50 км 10/4 600 м
[Cb cap As op]
+16.0 +11.2 73 +17 +17 1016.5 995.3 +18.0 0.0
12 19.08 В 1 50 км 10/8 600 м
[Cb cap As op]
+15.6 +10.3 71 +16 +16 1016.0 994.8
15 19.08 ЮВ 1 50 км 10/8 600 м
[Cb cap As op]
+14.7 +9.7 72 +15 +15 1016.0 994.6
18 19.08 В 1 50 км 10/6 600 м
[Cb cap As op]
+14.1 +9.2 72 +15 +15 1015.8 994.4
21 19.08 В 1 50 км 10/4 600 м
[Cb cap As op]
+13.7 +9.8 77 +14 +14 1016.4 995.3 +13.6 0.0
00 20.08 ЮВ 1 50 км 8/8 600 м
[Cb cap]
+15.4 +10.4 72 +16 +17 1015.0 993.8
03 20.08 В 2 50 км 10/8 600 м
[Cb cap As op]
+15.8 +10.4 70 +16 +16 1015.2 994.0
06 20.08 ЮВ 2 50 км 10/8 600 м
[Cb cap As op]
+17.3 +10.6 65 +18 +18 1015.2 994.1
09 20.08 В 1 50 км 9/3 600 м
[Cb cap Ac trans]
+17.2 +10.9 66 +18 +19 1015.8 994.7 +17.5

 

Местоположение метеостанции Усть-Миль (Якутия, Россия): широта 59.63 долгота 133.00 высота над уровнем моря 179 м.

В архиве по умолчанию представлена погода в Усть-Миле за последнюю неделю. Архивные данные за месяц целиком и за предыдущие месяцы, начиная с января 2011 года, Вы можете получить, выбрав интересующий диапазон дат из раскрывающегося списка и нажав кнопку "Ввод!".


*Определитесь, кто Вы:
робот инопланетянин человек

Внимание! Время в таблицах - всемирное. Для получения местного времени необходимо прибавить поправку, которая равна 9 ч.

Смотрите также архив погоды в соседних городах и на ближайших метеорологических станциях:

Погода в Усть-Мае (Якутия, Россия) (112 км)
Погода в Усть-Юдоме (Якутия, Россия) (129 км)
Погода в Амге (Якутия, Россия) (154 км)
Погода в Учуре (Якутия, Россия) (169 км)
Погода в Тегюльте (Якутия, Россия) (191 км)
Погода в Чюльбю (Якутия, Россия) (240 км)
Погода в Югоренке (Якутия, Россия) (259 км)
Погода в Чурапче (Якутия, Россия) (268 км)
Погода в Угино (Якутия, Россия) (280 км)
Погода в Охотском Перевозе (Якутия, Россия) (284 км)

Пояснения к столбцам:

Ветер - указаны скорость ветра в м/с - средняя за 10 мин, порывы в срок и между сроками (в фигурных скобках) и направление, откуда дует ветер: С - северный, СВ - северо-восточный, В - восточный, ЮВ - юго-восточный, Ю - южный, ЮЗ - юго-западный, З - западный, СЗ - северо-западный.
Видимость - горизонтальная дальность видимости в метрах или километрах. При видимости от 1 до 10 км при отсутствии осадков обычно наблюдается дымка, при ухудшении видимости до 1 км и менее - туман. В сухую погоду видимость может ухудшаться дымом, пылью или мглою.
Явления - указаны атмосферные явления, наблюдавшиеся в срок или в последний час перед сроком; фигурными скобками обозначены явления, наблюдавшиеся между сроками (за 1-3 часа до срока); квадратными скобками обозначены град или гололедные отложения с указанием их диаметра в мм.
Облачность - указаны через наклонную черту общая и нижняя облачность в баллах и высота нижней границы облаков в метрах; квадратными скобками обозначены формы облаков: Ci - перистые, Cs - перисто-слоистые, Cc - перисто-кучевые, Ac - высококучевые, As - высокослоистые, Sc - слоисто-кучевые, Ns - слоисто-дождевые, Cu - кучевые, Cb - кучево-дождевые. Подробнее классификацию облаков см. в Атласе облаков (PDF).
T - Температура воздуха - температура, измеренная на высоте 2 м над землей.
Td - Температура точки росы - температура, при понижении до которой содержащийся в воздухе водяной пар достигнет насыщения.
f - Относительная влажность воздуха - влажноcть воздуха, измеренная на высоте 2 м над землей.
Te - Эффективная температура - температура, которую ощущает одетый по сезону человек в тени. Характеристика душности погоды. При расчете учитывается влияние влажности воздуха и скорости ветра на теплоощущения человека.
Tes - Эффективная температура на солнце - температура, которую ощущает человек, с поправкой на солнечный нагрев. Характеристика знойности погоды. Зависит от высоты солнца над горизонтом, облачности и скорости ветра. Ночью, в пасмурную погоду, а также при ветре 12 м/с и более поправка равна нулю.
P - Атмосферное давление - приведенное к уровню моря атмосферное давление.
Po - Атмосферное давление - измеренное на уровне метеостанции атмосферное давление.
Tmin - Минимальная температура - минимум температуры воздуха на высоте 2 м над землей.
Tmax - Максимальная температура - максимум температуры воздуха на высоте 2 м над землей.
R - Количество осадков - Количество выпавших осадков за период времени, мм. При наведении курсора мыши на число - период времени, за который выпало указанное количество осадков.
R24 - Количество осадков - Количество выпавших осадков за 24 часа, мм.
S - Снежный покров - Высота снежного покрова, см. При наведении курсора мыши на число - состояние снежного покрова и степень покрытия местности в баллах.